SCP
0 0 0 0 0 0 0 0 0 0 0 0 0 0 0 0 0 0 0 0 0 0 0 0 0 0 0 0 0 0 1 1 1 1 1 1 1 1
0 0 0 0 0 0 0 0 0 0 0 0 0 0 0 0 0 0 0 0 0 0 0 0 0 0 0 0 0 0 0 1 1 1 1 1 1 1
0 0 0 0 0 0 0 0 0 0 0 0 0 0 0 0 0 0 0 0 0 0 0 0 0 0 0 0 0 0 0 0 1 1 0 1 1 1
0 0 0 0 0 0 0 0 0 0 0 0 0 0 0 0 0 0 0 0 0 0 0 0 0 0 0 0 0 0 0 0 0 0 0 0 0 0
0 0 0 0 0 0 0 0 0 0 0 0 0 0 0 0 0 0 0 0 0 0 0 0 0 0 0 0 0 0 0 0 0 0 0 0 0 0
0 0 0 0 0 0 0 0 0 0 0 0 0 0 0 0 0 0 0 0 0 0 0 0 0 0 0 0 0 0 0 0 0 0 0 0 0 0
0 0 0 0 0 0 0 0 0 0 0 0 0 0 0 0 0 0 0 0 0 0 0 0 0 0 0 0 0 0 0 0 0 0 0 0 0 0
0 0 0 0 0 0 0 0 0 0 0 0 0 0 0 0 0 0 0 0 0 0 0 0 0 0 0 0 0 0 0 0 0 0 0 0 0 0
0 0 0 0 0 0 0 0 0 0 0 0 0 0 0 0 0 0 0 0 0 0 0 0 0 0 0 0 0 0 0 0 0 0 0 0 0 0
0 0 0 0 0 0 0 0 0 0 0 0 0 0 0 0 0 0 0 0 0 0 0 0 0 0 0 0 0 0 0 0 0 0 0 0 0 0
0 0 0 0 0 0 0 0 0 0 0 0 0 0 0 0 0 0 0 0 0 0 0 0 0 0 0 0 0 0 0 0 0 0 0 0 0 0
0 0 0 0 0 0 0 0 0 0 0 0 0 0 0 0 0 0 0 0 0 0 0 0 0 0 0 0 0 0 0 0 0 0 0 0 0 0
0 0 0 0 0 0 0 0 0 0 0 0 0 0 0 0 0 0 0 0 0 0 0 0 0 0 0 0 0 0 0 0 0 0 0 0 0 0
0 0 0 0 0 0 0 0 0 0 0 0 0 0 0 0 0 0 0 0 0 0 0 0 0 0 0 0 0 0 0 0 0 0 0 0 0 0
0 0 0 0 0 0 0 0 0 0 0 0 0 0 0 0 0 0 0 0 0 0 0 0 0 0 0 0 0 0 0 0 0 0 0 0 0 0
0 0 0 0 0 0 0 0 0 0 0 0 0 0 0 0 0 0 0 0 0 0 0 0 0 0 0 0 0 0 0 0 0 0 0 0 0 0
0 0 0 0 0 0 0 0 0 0 0 0 0 0 0 0 0 0 0 0 0 0 0 0 0 0 0 0 0 0 0 0 0 0 0 0 0 0
0 0 0 0 0 0 0 0 0 0 0 0 0 0 0 0 0 0 0 0 0 0 0 0 0 0 0 0 0 0 0 0 0 0 0 0 0 0
0 0 0 0 0 0 0 0 0 0 0 0 0 0 0 0 0 0 0 0 0 0 0 0 0 0 0 0 0 0 0 0 0 0 0 0 0 0
0 0 0 0 0 0 0 0 0 0 0 0 0 0 0 0 0 0 0 0 0 0 0 0 0 0 0 0 0 0 0 0 0 0 0 0 0 0
0 0 0 0 0 0 0 0 0 0 0 0 0 0 0 0 0 0 0 0 0 0 0 0 0 0 0 0 0 0 0 0 0 0 0 0 0 0
0 0 0 0 0 0 0 0 0 0 0 0 0 0 0 0 0 0 0 0 0 0 0 0 0 0 0 0 0 0 0 0 0 0 0 0 0 0
0 0 0 0 0 0 0 0 0 0 0 0 0 0 0 0 0 0 0 0 0 0 0 0 0 0 0 0 0 0 0 0 0 0 0 0 0 0
Wind_Speed
5 7 7 7 7 7 7 8 8 10 11 10 8 7 6 6 9 8 8 13 16 17 17 16 17 17 17 16 14 13 13 13 13 15 16 18 19 19
5 7 8 7 7 7 7 7 8 10 11 7 9 11 10 9 12 10 9 16 17 17 16 15 15 15 14 14 14 14 15 15 16 16 17 18 18 18
7 9 11 11 8 8 7 8 8 9 12 9 8 9 10 11 10 9 9 9 8 13 12 10 8 8 10 12 14 15 16 17 18 18 18 19 19 19
10 11 12 10 11 9 8 9 9 9 9 11 9 8 10 11 11 10 8 6 5 7 6 5 6 7 10 12 15 16 17 18 20 21 21 21 21 20
10 12 13 13 13 10 10 10 8 8 7 9 10 9 8 8 8 8 7 4 4 3 3 5 7 9 12 15 17 19 20 21 22 23 24 23 23 22
11 12 13 13 13 13 11 10 9 8 8 9 10 10 9 8 6 6 5 2 2 2 3 5 7 11 14 17 20 23 24 25 26 27 26 25 23 21
13 14 14 17 19 14 11 9 9 8 9 9 10 10 9 7 6 4 4 2 1 1 2 3 4 6 8 14 19 24 27 28 29 30 29 27 24 21
14 14 14 15 16 18 19 19 16 13 12 11 10 11 11 8 5 4 3 2 2 0 2 4 3 6 7 8 18 24 25 26 28 30 30 29 26 22
13 13 12 12 15 12 15 18 18 21 21 15 13 13 11 7 5 4 3 2 1 1 2 3 3 6 7 11 23 22 17 14 19 25 27 27 24 20
13 13 13 14 13 13 12 13 14 13 13 11 10 9 7 4 3 2 4 4 2 1 2 3 4 5 8 10 20 23 14 3 10 19 23 23 20 18
13 12 13 12 15 17 14 13 13 10 7 5 2 3 4 5 6 5 4 2 1 1 2 3 4 5 6 9 14 23 24 19 18 21 23 22 21 18
11 12 14 14 16 18 13 11 10 6 4 3 7 10 10 11 11 6 3 2 2 1 3 3 4 4 5 6 10 13 15 25 29 27 25 24 22 15
10 9 9 16 19 19 14 7 5 3 2 5 7 8 8 7 7 6 5 3 3 3 3 3 4 4 4 5 8 13 13 13 15 20 26 29 25 19
9 9 10 17 19 16 8 3 0 2 4 6 7 8 7 7 7 7 8 8 8 8 7 6 5 5 4 5 7 9 12 14 14 15 16 28 32 34
9 16 18 18 14 8 7 8 6 5 6 8 8 8 7 6 6 6 7 8 10 10 10 11 9 8 9 8 7 8 8 12 13 14 14 15 15 16
10 13 16 13 9 8 8 8 8 7 8 9 8 7 6 6 6 6 6 6 8 10 11 13 12 12 12 13 12 13 12 9 11 13 14 15 14 14
11 7 6 7 7 6 6 7 7 7 8 8 7 6 6 6 6 6 6 6 8 9 9 9 11 12 15 12 12 12 12 12 11 11 13 16 14 13
9 7 7 7 7 6 6 7 7 7 7 7 7 6 6 6 6 6 6 6 8 8 9 8 8 10 12 14 16 12 12 12 11 12 12 15 15 12
7 7 7 7 7 6 6 6 7 7 6 7 7 6 5 6 6 6 6 6 7 8 8 7 7 9 12 13 12 14 11 10 11 12 12 13 13 11
7 7 7 7 7 6 6 6 6 6 6 6 6 6 5 5 6 6 6 7 7 8 9 9 9 10 10 10 8 10 13 10 10 12 12 12 13 16
8 8 7 7 7 6 6 6 6 6 6 6 6 6 4 5 5 6 7 9 8 8 9 9 9 10 9 8 10 10 12 14 11 9 10 11 11 10
8 8 8 8 7 7 6 6 6 6 6 6 5 5 4 4 5 7 7 7 8 9 10 8 8 9 10 11 12 12 11 10 11 12 10 6 5 7
8 8 8 8 7 7 6 6 7 6 5 5 5 4 4 4 5 6 7 7 8 9 9 9 9 9 10 10 11 10 12 11 9 11 13 17 22 22
Wind_Direction
311 306 300 295 287 278 271 266 273 286 291 289 288 280 278 277 275 276 271 277 282 279 274 270 267 265 263 260 259 259 259 259 254 247 241 237 236 236
304 303 301 295 289 280 271 263 256 266 278 280 283 287 289 288 287 284 277 281 281 280 276 271 265 261 256 252 250 252 252 251 249 246 243 239 237 237
305 306 302 298 290 283 277 269 262 259 271 280 277 283 286 286 289 286 278 273 271 273 272 270 262 254 253 254 254 253 252 250 247 244 241 239 237 236
304 305 303 300 292 288 281 275 270 265 271 284 289 289 285 285 283 282 281 271 260 268 270 269 270 270 269 266 262 258 254 251 247 244 241 238 237 235
298 300 299 297 292 287 282 278 275 275 273 283 288 286 283 280 279 278 271 266 251 251 265 277 282 283 280 274 268 261 254 247 243 241 238 235 234 233
298 296 294 290 286 284 280 276 277 279 280 281 283 283 280 277 266 266 262 229 236 260 280 281 284 288 283 278 273 266 257 247 239 233 230 228 228 229
304 300 294 290 286 285 286 287 287 283 281 279 279 279 276 273 263 250 249 207 213 241 281 275 284 285 286 285 283 275 265 252 239 229 222 218 218 219
306 303 299 293 293 296 296 294 289 285 282 276 273 271 271 266 260 242 216 193 215 179 295 283 284 293 295 291 295 291 274 255 236 221 212 207 206 208
300 298 297 295 298 292 291 293 290 284 277 271 267 263 264 258 241 223 195 169 145 351 301 288 300 301 305 308 319 316 299 259 222 204 195 191 191 192
296 292 289 290 290 290 292 290 286 284 283 276 264 261 258 249 218 168 129 112 101 22 345 302 310 305 313 322 337 349 357 41 156 163 164 164 165 169
301 297 293 289 289 293 296 291 290 291 307 344 23 67 81 92 104 108 114 114 86 16 359 326 315 309 320 341 352 9 31 60 98 121 130 135 137 137
305 302 300 295 297 300 297 289 289 299 331 26 59 64 69 72 71 72 84 91 81 21 354 344 338 336 343 350 5 14 32 54 71 87 102 110 115 114
304 305 303 302 304 304 300 286 273 286 39 72 72 69 65 61 56 55 55 65 73 51 3 3 6 4 7 354 13 24 33 46 60 70 77 83 87 93
308 306 305 308 312 313 314 323 48 102 89 81 75 69 66 63 61 63 65 66 67 65 45 43 43 29 33 39 32 25 38 42 54 65 72 75 77 78
313 316 319 321 324 331 19 53 77 84 84 80 77 73 71 70 68 68 70 71 70 67 61 58 60 55 55 60 55 41 48 44 47 59 65 68 72 77
325 321 322 330 347 8 37 59 67 74 83 84 83 82 75 65 59 58 68 70 77 73 64 62 61 63 66 62 62 59 54 55 52 60 69 69 67 68
327 327 339 350 8 29 53 68 73 78 82 87 90 86 75 66 62 58 64 70 76 79 76 68 65 65 64 64 68 66 67 67 63 66 75 77 68 68
343 348 355 3 15 32 54 68 72 78 85 90 91 86 73 68 70 65 66 72 78 79 79 78 81 82 78 61 46 70 72 73 73 71 74 83 81 76
356 0 5 11 19 34 52 67 75 79 85 90 94 86 72 69 71 73 74 73 76 78 74 70 71 79 84 82 53 41 71 79 81 80 78 82 88 89
3 6 10 15 22 34 49 63 75 81 85 90 92 85 72 67 70 74 77 79 79 76 69 63 65 69 75 82 79 56 51 75 86 88 88 87 87 92
3 7 12 16 23 31 43 57 69 78 86 91 93 89 75 69 72 75 79 76 78 77 75 72 77 85 90 86 83 76 67 64 72 88 100 102 101 100
5 8 12 17 20 27 38 52 65 74 81 86 89 86 77 74 78 79 82 81 82 86 87 81 79 82 85 91 93 94 91 82 71 69 69 76 109 115
5 7 10 12 15 20 30 45 58 70 78 84 84 79 75 76 78 84 88 91 96 96 91 85 81 81 86 93 97 95 87 79 75 72 67 76 86 93